| time (UTC) | temp F | wind direction | speed MPH | gust MPH | rain 1hr in | rain 24hr in | rain mn in | humidity % | barometer mb |
| 20260503203517 | 52 | 345 | 3.0 | 5.0 | 0.00 | 0.03 | 0.02 | 90 | 1011.5 |
| 20260503203036 | 52 | 354 | 3.0 | 5.0 | 0.00 | 0.03 | 0.02 | 90 | 1011.4 |
| 20260503202515 | 52 | 344 | 3.0 | 5.0 | 0.00 | 0.03 | 0.02 | 90 | 1011.3 |
| 20260503202016 | 53 | 333 | 2.0 | 4.0 | 0.00 | 0.03 | 0.02 | 90 | 1011.2 |
| 20260503201537 | 53 | 354 | 2.0 | 4.0 | 0.00 | 0.03 | 0.02 | 90 | 1011.2 |
| 20260503201015 | 53 | 342 | 2.0 | 3.0 | 0.00 | 0.03 | 0.02 | 90 | 1011.2 |
| 20260503200515 | 53 | 337 | 1.0 | 3.0 | 0.00 | 0.03 | 0.02 | 90 | 1011.2 |
| 20260503200035 | 53 | 342 | 1.0 | 4.0 | 0.00 | 0.03 | 0.02 | 90 | 1011.1 |
| 20260503195517 | 53 | 335 | 1.0 | 4.0 | 0.00 | 0.03 | 0.02 | 90 | 1011.0 |
| 20260503195017 | 53 | 347 | 2.0 | 5.0 | 0.00 | 0.03 | 0.02 | 90 | 1010.8 |
| 20260503194535 | 53 | 345 | 2.0 | 5.0 | 0.00 | 0.03 | 0.02 | 90 | 1010.8 |
| 20260503194017 | 53 | 333 | 2.0 | 5.0 | 0.00 | 0.03 | 0.02 | 90 | 1010.7 |
| 20260503193516 | 53 | 333 | 2.0 | 5.0 | 0.00 | 0.03 | 0.02 | 90 | 1010.7 |
| 20260503193032 | 53 | 4 | 2.0 | 4.0 | 0.00 | 0.03 | 0.02 | 90 | 1010.7 |
| 20260503192515 | 53 | 350 | 2.0 | 4.0 | 0.00 | 0.03 | 0.02 | 90 | 1010.6 |
| 20260503192018 | 53 | 335 | 2.0 | 4.0 | 0.00 | 0.03 | 0.02 | 90 | 1010.7 |
| 20260503191532 | 53 | 338 | 1.0 | 6.0 | 0.00 | 0.03 | 0.02 | 90 | 1010.6 |
| 20260503191019 | 53 | 353 | 4.0 | 6.0 | 0.00 | 0.03 | 0.02 | 90 | 1010.7 |
| 20260503190517 | 53 | 341 | 3.0 | 5.0 | 0.00 | 0.03 | 0.02 | 90 | 1010.7 |
| 20260503190043 | 53 | 354 | 2.0 | 5.0 | 0.00 | 0.03 | 0.02 | 90 | 1010.8 |
| 20260503185517 | 53 | 343 | 2.0 | 6.0 | 0.00 | 0.06 | 0.02 | 90 | 1010.8 |
| 20260503185018 | 54 | 354 | 3.0 | 7.0 | 0.00 | 0.06 | 0.02 | 90 | 1010.8 |
| 20260503184531 | 54 | 359 | 4.0 | 8.0 | 0.00 | 0.06 | 0.02 | 90 | 1010.8 |
| 20260503184015 | 54 | 342 | 4.0 | 8.0 | 0.00 | 0.06 | 0.02 | 90 | 1010.7 |
| 20260503183515 | 54 | 360 | 4.0 | 8.0 | 0.00 | 0.06 | 0.02 | 90 | 1010.7 |
| 20260503183035 | 54 | 341 | 3.0 | 8.0 | 0.00 | 0.06 | 0.02 | 90 | 1010.7 |
| 20260503182515 | 54 | 356 | 3.0 | 8.0 | 0.00 | 0.06 | 0.02 | 90 | 1010.7 |
| 20260503182016 | 54 | 4 | 4.0 | 8.0 | 0.00 | 0.06 | 0.02 | 90 | 1010.7 |
| 20260503181536 | 55 | 16 | 3.0 | 5.0 | 0.00 | 0.06 | 0.02 | 90 | 1010.6 |
| 20260503181017 | 55 | 327 | 2.0 | 5.0 | 0.00 | 0.06 | 0.02 | 90 | 1010.6 |
| 20260503180516 | 54 | 332 | 2.0 | 4.0 | 0.00 | 0.06 | 0.02 | 89 | 1010.6 |
| 20260503180032 | 54 | 330 | 2.0 | 5.0 | 0.00 | 0.06 | 0.02 | 89 | 1010.6 |
| 20260503175519 | 54 | 332 | 2.0 | 5.0 | 0.00 | 0.15 | 0.02 | 89 | 1010.6 |
| 20260503175015 | 54 | 335 | 3.0 | 5.0 | 0.00 | 0.15 | 0.02 | 88 | 1010.6 |
| 20260503174535 | 55 | 328 | 2.0 | 5.0 | 0.00 | 0.15 | 0.02 | 88 | 1010.5 |
| 20260503174022 | 55 | 338 | 3.0 | 6.0 | 0.00 | 0.14 | 0.01 | 88 | 1010.5 |
| 20260503173519 | 55 | 325 | 2.0 | 6.0 | 0.00 | 0.14 | 0.01 | 88 | 1010.5 |
| 20260503173054 | 55 | 316 | 2.0 | 5.0 | 0.00 | 0.14 | 0.01 | 88 | 1010.6 |
| 20260503172517 | 55 | 311 | 2.0 | 6.0 | 0.00 | 0.14 | 0.01 | 88 | 1010.5 |
| 20260503172019 | 55 | 314 | 3.0 | 6.0 | 0.00 | 0.14 | 0.01 | 87 | 1010.6 |
| 20260503171536 | 55 | 310 | 3.0 | 6.0 | 0.00 | 0.14 | 0.01 | 87 | 1010.5 |
| 20260503171019 | 55 | 321 | 3.0 | 6.0 | 0.00 | 0.14 | 0.01 | 85 | 1010.6 |
| 20260503170519 | 55 | 323 | 4.0 | 7.0 | 0.00 | 0.14 | 0.01 | 84 | 1010.5 |
| 20260503150519 | 56 | 315 | 3.0 | 7.0 | 0.00 | 0.28 | 0.01 | 88 | 1010.6 |
| 20260503131015 | 54 | 283 | 4.0 | 7.0 | 0.00 | 0.29 | 0.01 | 90 | 1010.9 |
| 20260503130516 | 54 | 295 | 3.0 | 7.0 | 0.00 | 0.29 | 0.01 | 91 | 1010.9 |
| 20260503110515 | 55 | 310 | 0.0 | 1.0 | 0.00 | 0.29 | 0.01 | 94 | 1011.0 |
| 20260503081549 | 52 | 309 | 0.0 | 2.0 | 0.00 | 0.27 | 0.00 | 94 | 1010.9 |
| 20260503081016 | 52 | 0 | 0.0 | 0.0 | 0.00 | 0.27 | 0.00 | 94 | 1010.9 |
| 20260503080516 | 52 | 0 | 0.0 | 0.0 | 0.00 | 0.27 | 0.00 | 94 | 1010.8 |
| 20260503072515 | 52 | 0 | 0.0 | 0.0 | 0.00 | 0.27 | 0.00 | 94 | 1010.9 |
| 20260503072014 | 52 | 0 | 0.0 | 0.0 | 0.00 | 0.27 | 0.00 | 94 | 1010.9 |
| 20260503071539 | 51 | 0 | 0.0 | 0.0 | 0.00 | 0.27 | 0.00 | 94 | 1010.8 |
| 20260503071018 | 52 | 0 | 0.0 | 0.0 | 0.00 | 0.27 | 0.00 | 94 | 1010.9 |
| 20260503070518 | 51 | 0 | 0.0 | 0.0 | 0.00 | 0.27 | 0.00 | 94 | 1010.8 |
| 20260503055018 | 50 | 0 | 0.0 | 2.0 | 0.00 | 0.27 | 0.00 | 94 | 1010.5 |
| 20260503054538 | 50 | 0 | 0.0 | 2.0 | 0.00 | 0.27 | 0.00 | 94 | 1010.4 |
| 20260503054014 | 50 | 335 | 0.0 | 1.0 | 0.00 | 0.27 | 0.00 | 94 | 1010.5 |
| 20260503053515 | 50 | 0 | 0.0 | 1.0 | 0.00 | 0.27 | 0.00 | 94 | 1010.4 |
| 20260503053034 | 50 | 335 | 0.0 | 1.0 | 0.00 | 0.27 | 0.00 | 94 | 1010.4 |
| 20260503052520 | 50 | 0 | 0.0 | 0.0 | 0.00 | 0.27 | 0.00 | 94 | 1010.4 |
| 20260503052017 | 50 | 0 | 0.0 | 0.0 | 0.00 | 0.27 | 0.00 | 94 | 1010.4 |
| 20260503051534 | 50 | 0 | 0.0 | 0.0 | 0.00 | 0.27 | 0.00 | 94 | 1010.4 |
| 20260503051015 | 50 | 0 | 0.0 | 0.0 | 0.00 | 0.27 | 0.00 | 94 | 1010.5 |
| 20260503050517 | 50 | 335 | 0.0 | 1.0 | 0.00 | 0.27 | 0.00 | 94 | 1010.6 |
| 20260503050033 | 50 | 336 | 0.0 | 2.0 | 0.00 | 0.27 | 0.00 | 94 | 1010.6 |
| 20260503045515 | 50 | 336 | 1.0 | 2.0 | 0.00 | 0.27 | 0.00 | 94 | 1010.6 |
| 20260503045018 | 50 | 336 | 0.0 | 1.0 | 0.00 | 0.27 | 0.00 | 94 | 1010.6 |
| 20260503044540 | 50 | 0 | 0.0 | 1.0 | 0.00 | 0.27 | 0.00 | 94 | 1010.6 |
| 20260503044016 | 50 | 0 | 0.0 | 0.0 | 0.00 | 0.27 | 0.00 | 94 | 1010.5 |
| 20260503043516 | 50 | 0 | 0.0 | 0.0 | 0.00 | 0.27 | 0.00 | 94 | 1010.6 |
| 20260503043032 | 50 | 0 | 0.0 | 0.0 | 0.00 | 0.27 | 0.00 | 94 | 1010.7 |
| 20260503042515 | 50 | 0 | 0.0 | 0.0 | 0.00 | 0.27 | 0.00 | 94 | 1010.6 |
| 20260503042015 | 50 | 0 | 0.0 | 0.0 | 0.00 | 0.27 | 0.00 | 94 | 1010.7 |
| 20260503041538 | 50 | 0 | 0.0 | 0.0 | 0.00 | 0.27 | 0.00 | 94 | 1010.7 |
| 20260503041016 | 50 | 0 | 0.0 | 1.0 | 0.00 | 0.27 | 0.00 | 94 | 1010.7 |
| 20260503040516 | 50 | 0 | 0.0 | 1.0 | 0.00 | 0.27 | 0.00 | 94 | 1010.6 |
| 20260503040035 | 50 | 325 | 0.0 | 1.0 | 0.00 | 0.27 | 0.00 | 94 | 1010.6 |
| 20260503035518 | 50 | 325 | 0.0 | 1.0 | 0.00 | 0.27 | 0.00 | 94 | 1010.6 |
| 20260503035018 | 50 | 323 | 0.0 | 1.0 | 0.00 | 0.27 | 0.00 | 94 | 1010.6 |
| 20260503034532 | 51 | 321 | 0.0 | 1.0 | 0.00 | 0.27 | 0.00 | 94 | 1010.6 |
| 20260503034017 | 50 | 0 | 0.0 | 0.0 | 0.00 | 0.27 | 0.00 | 94 | 1010.6 |
| 20260503033521 | 50 | 0 | 0.0 | 0.0 | 0.00 | 0.27 | 0.00 | 94 | 1010.7 |
| 20260503033033 | 50 | 0 | 0.0 | 0.0 | 0.00 | 0.27 | 0.00 | 94 | 1010.7 |
| 20260503032516 | 50 | 0 | 0.0 | 0.0 | 0.00 | 0.27 | 0.00 | 94 | 1010.7 |
| 20260503032015 | 50 | 0 | 0.0 | 0.0 | 0.00 | 0.27 | 0.00 | 94 | 1010.8 |
| 20260503031539 | 50 | 318 | 0.0 | 0.0 | 0.00 | 0.27 | 0.00 | 94 | 1010.9 |
| 20260503031016 | 50 | 0 | 0.0 | 0.0 | 0.00 | 0.27 | 0.00 | 94 | 1010.9 |
| 20260503030522 | 50 | 0 | 0.0 | 0.0 | 0.00 | 0.27 | 0.00 | 94 | 1011.0 |
| 20260503030036 | 50 | 0 | 0.0 | 1.0 | 0.00 | 0.27 | 0.00 | 94 | 1011.0 |
| 20260503025518 | 50 | 0 | 0.0 | 1.0 | 0.00 | 0.27 | 0.00 | 94 | 1011.0 |
| 20260503025016 | 50 | 0 | 0.0 | 0.0 | 0.00 | 0.27 | 0.00 | 94 | 1011.0 |
| 20260503024530 | 50 | 0 | 0.0 | 0.0 | 0.00 | 0.27 | 0.00 | 94 | 1011.0 |
| 20260503024017 | 50 | 0 | 0.0 | 0.0 | 0.00 | 0.27 | 0.00 | 94 | 1010.9 |
| 20260503023518 | 50 | 0 | 0.0 | 0.0 | 0.00 | 0.27 | 0.00 | 94 | 1010.9 |
| 20260503023037 | 50 | 0 | 0.0 | 0.0 | 0.00 | 0.27 | 0.00 | 94 | 1010.9 |
| 20260503022516 | 50 | 0 | 0.0 | 0.0 | 0.00 | 0.27 | 0.00 | 94 | 1011.0 |
| 20260503022020 | 50 | 0 | 0.0 | 2.0 | 0.00 | 0.27 | 0.00 | 94 | 1011.0 |
| 20260503021529 | 50 | 0 | 0.0 | 2.0 | 0.00 | 0.27 | 0.00 | 94 | 1010.9 |
| 20260503021110 | 50 | 318 | 0.0 | 3.0 | 0.00 | 0.27 | 0.00 | 94 | 1011.0 |
| 20260503020518 | 50 | 318 | 1.0 | 3.0 | 0.00 | 0.27 | 0.00 | 94 | 1011.0 |
| 20260503020031 | 50 | 319 | 1.0 | 3.0 | 0.00 | 0.27 | 0.00 | 94 | 1011.0 |
| 20260503015515 | 50 | 319 | 1.0 | 3.0 | 0.00 | 0.27 | 0.00 | 94 | 1011.0 |
| 20260503015017 | 50 | 317 | 1.0 | 4.0 | 0.00 | 0.27 | 0.00 | 94 | 1011.0 |
| 20260503014535 | 50 | 321 | 2.0 | 4.0 | 0.00 | 0.27 | 0.00 | 94 | 1011.0 |
| 20260503014017 | 49 | 317 | 1.0 | 4.0 | 0.00 | 0.27 | 0.00 | 94 | 1011.0 |
| 20260503013520 | 50 | 0 | 1.0 | 4.0 | 0.00 | 0.27 | 0.00 | 94 | 1011.1 |
| 20260503013039 | 50 | 326 | 1.0 | 4.0 | 0.00 | 0.27 | 0.00 | 94 | 1011.2 |
| 20260503012516 | 50 | 322 | 2.0 | 4.0 | 0.00 | 0.27 | 0.00 | 94 | 1011.2 |
| 20260503012017 | 51 | 330 | 3.0 | 4.0 | 0.00 | 0.27 | 0.00 | 94 | 1011.2 |
| 20260503011533 | 51 | 316 | 3.0 | 4.0 | 0.00 | 0.27 | 0.00 | 94 | 1011.2 |
| 20260503011016 | 51 | 316 | 2.0 | 4.0 | 0.00 | 0.27 | 0.00 | 94 | 1011.2 |
| 20260503010517 | 51 | 314 | 2.0 | 4.0 | 0.00 | 0.27 | 0.00 | 94 | 1011.3 |
| 20260503010035 | 51 | 318 | 1.0 | 4.0 | 0.00 | 0.27 | 0.00 | 94 | 1011.4 |
| 20260503005517 | 51 | 320 | 1.0 | 4.0 | 0.00 | 0.27 | 0.00 | 94 | 1011.3 |
| 20260503005018 | 51 | 314 | 2.0 | 4.0 | 0.00 | 0.27 | 0.00 | 94 | 1011.4 |
| 20260503004533 | 51 | 317 | 1.0 | 3.0 | 0.00 | 0.27 | 0.00 | 94 | 1011.4 |
| 20260503004015 | 51 | 319 | 1.0 | 4.0 | 0.00 | 0.27 | 0.00 | 94 | 1011.5 |
| 20260503003515 | 51 | 317 | 2.0 | 4.0 | 0.00 | 0.27 | 0.00 | 94 | 1011.6 |
| 20260503003030 | 51 | 318 | 1.0 | 4.0 | 0.00 | 0.27 | 0.00 | 94 | 1011.6 |
| 20260503002520 | 51 | 319 | 2.0 | 4.0 | 0.00 | 0.27 | 0.00 | 94 | 1011.5 |
| 20260503002017 | 51 | 321 | 2.0 | 5.0 | 0.00 | 0.27 | 0.00 | 94 | 1011.5 |
| 20260503001530 | 51 | 311 | 3.0 | 5.0 | 0.00 | 0.27 | 0.00 | 94 | 1011.5 |
| 20260503001017 | 51 | 314 | 3.0 | 5.0 | 0.00 | 0.27 | 0.00 | 94 | 1011.7 |
| 20260503000515 | 51 | 303 | 2.0 | 4.0 | 0.00 | 0.27 | 0.00 | 94 | 1011.7 |
| 20260503000044 | 51 | 297 | 2.0 | 4.0 | 0.00 | 0.27 | 0.00 | 94 | 1011.8 |
| 20260502235517 | 51 | 309 | 2.0 | 4.0 | 0.00 | 0.27 | 0.00 | 94 | 1011.9 |
| 20260502235016 | 51 | 312 | 1.0 | 3.0 | 0.00 | 0.27 | 0.00 | 94 | 1012.0 |
| 20260502234534 | 51 | 304 | 1.0 | 2.0 | 0.00 | 0.27 | 0.00 | 94 | 1012.1 |
| 20260502234016 | 51 | 305 | 1.0 | 2.0 | 0.00 | 0.27 | 0.00 | 94 | 1012.0 |
| 20260502233520 | 51 | 308 | 0.0 | 1.0 | 0.00 | 0.27 | 0.00 | 94 | 1012.1 |
| 20260502233031 | 51 | 309 | 0.0 | 1.0 | 0.00 | 0.27 | 0.00 | 94 | 1012.1 |
| 20260502232518 | 51 | 0 | 0.0 | 1.0 | 0.00 | 0.27 | 0.00 | 94 | 1012.1 |
| 20260502232016 | 51 | 0 | 0.0 | 0.0 | 0.00 | 0.27 | 0.00 | 94 | 1012.2 |
| 20260502231532 | 51 | 0 | 0.0 | 1.0 | 0.00 | 0.27 | 0.00 | 94 | 1012.2 |
| 20260502231015 | 51 | 0 | 0.0 | 2.0 | 0.00 | 0.27 | 0.00 | 94 | 1012.2 |
| 20260502230515 | 51 | 309 | 0.0 | 2.0 | 0.00 | 0.27 | 0.00 | 94 | 1012.3 |
| 20260502230031 | 51 | 306 | 0.0 | 3.0 | 0.00 | 0.27 | 0.00 | 94 | 1012.3 |
| 20260502225515 | 51 | 310 | 0.0 | 3.0 | 0.00 | 0.27 | 0.27 | 94 | 1012.3 |
| 20260502225016 | 51 | 307 | 0.0 | 2.0 | 0.00 | 0.27 | 0.27 | 94 | 1012.3 |
| 20260502224530 | 51 | 307 | 0.0 | 2.0 | 0.00 | 0.27 | 0.27 | 94 | 1012.3 |
| 20260502224015 | 51 | 306 | 1.0 | 2.0 | 0.00 | 0.26 | 0.26 | 94 | 1012.3 |
| 20260502223520 | 51 | 307 | 1.0 | 2.0 | 0.00 | 0.26 | 0.26 | 94 | 1012.2 |
| 20260502223032 | 51 | 311 | 1.0 | 2.0 | 0.00 | 0.26 | 0.26 | 94 | 1012.2 |
| 20260502222516 | 51 | 0 | 0.0 | 1.0 | 0.00 | 0.26 | 0.26 | 94 | 1012.2 |
| 20260502222018 | 51 | 0 | 0.0 | 1.0 | 0.00 | 0.26 | 0.26 | 94 | 1012.3 |
| 20260502221536 | 51 | 0 | 0.0 | 1.0 | 0.00 | 0.26 | 0.26 | 94 | 1012.3 |
| 20260502221015 | 51 | 0 | 0.0 | 1.0 | 0.00 | 0.26 | 0.26 | 94 | 1012.2 |
| 20260502220516 | 51 | 309 | 0.0 | 1.0 | 0.00 | 0.26 | 0.26 | 94 | 1012.2 |
| 20260502220034 | 51 | 0 | 0.0 | 1.0 | 0.00 | 0.26 | 0.26 | 94 | 1012.2 |
| 20260502215516 | 51 | 0 | 0.0 | 1.0 | 0.00 | 0.26 | 0.26 | 94 | 1012.1 |
| 20260502215015 | 51 | 0 | 0.0 | 3.0 | 0.00 | 0.26 | 0.26 | 94 | 1012.1 |
| 20260502214531 | 51 | 0 | 0.0 | 3.0 | 0.00 | 0.26 | 0.26 | 94 | 1012.1 |
| 20260502214022 | 51 | 300 | 1.0 | 3.0 | 0.00 | 0.26 | 0.26 | 94 | 1012.1 |
| 20260502213516 | 51 | 307 | 1.0 | 3.0 | 0.00 | 0.26 | 0.26 | 94 | 1012.0 |
| 20260502213035 | 51 | 296 | 0.0 | 4.0 | 0.00 | 0.26 | 0.26 | 94 | 1012.0 |
| 20260502212516 | 51 | 335 | 2.0 | 4.0 | 0.00 | 0.26 | 0.26 | 94 | 1012.0 |
| 20260502212016 | 51 | 1 | 2.0 | 5.0 | 0.00 | 0.26 | 0.26 | 94 | 1011.9 |
| 20260502211530 | 51 | 354 | 2.0 | 5.0 | 0.00 | 0.26 | 0.26 | 94 | 1012.0 |
| 20260502211015 | 51 | 345 | 3.0 | 5.0 | 0.00 | 0.26 | 0.26 | 94 | 1012.0 |
| 20260502210514 | 50 | 355 | 3.0 | 5.0 | 0.00 | 0.26 | 0.26 | 93 | 1011.9 |
| 20260502210034 | 50 | 347 | 2.0 | 5.0 | 0.00 | 0.26 | 0.26 | 93 | 1012.0 |
| 20260502205515 | 51 | 350 | 2.0 | 4.0 | 0.00 | 0.26 | 0.26 | 93 | 1011.9 |
| 20260502205015 | 51 | 351 | 3.0 | 4.0 | 0.00 | 0.26 | 0.26 | 93 | 1011.9 |
| 20260502204532 | 51 | 348 | 2.0 | 4.0 | 0.00 | 0.26 | 0.26 | 93 | 1012.0 |
| 20260502204016 | 51 | 356 | 2.0 | 4.0 | 0.00 | 0.26 | 0.26 | 93 | 1012.0 |